Preview of NWS' New Version of Forecast
This preview is not operational and should not be used for support decisions.

Regional Weather Roundup (RWR)

Issued by National Weather Service (NWS)

                            
000
ASUS46 KSEW 210510
RWRWA 

WASHINGTON REGIONAL WEATHER ROUNDUP
NATIONAL WEATHER SERVICE SEATTLE WA
1000 PM PDT SAT APR 20 2019

NOTE:"FAIR" INDICATES FEW OR NO CLOUDS BELOW 12,000 FEET WITH NO 
SIGNIFICANT WEATHER AND/OR OBSTRUCTIONS TO VISIBILITY.

WAZ507-509-555>559-210600-
SEATTLE, TACOMA, EVERETT, AND VICINITY
  
CITY           SKY/WX    TMP DP  RH WIND       PRES   REMARKS
EVERETT        CLEAR     51  44  77 S5        30.13R                  
BOEING FIELD   CLEAR     53  43  68 CALM      30.13R                  
RENTON         CLEAR     52  45  77 SE3       30.13R                  
SEATAC AIRPORT PTCLDY    54  42  64 CALM      30.13R                  
JBLM-MCCHORD   PTCLDY    46  46 100 SE3       30.13R                  
PUYALLUP       FAIR      46  46 100 CALM      30.13R                  
BREMERTON      CLEAR     44  43  96 CALM      30.13R                  
JBLM-FT LEWIS  PTCLDY    50  49  99 SE5       30.12R                  
TACOMA NARROWS MOCLDY    52  43  71 CALM      30.12R                  
$$
 
WAZ001-503-506-510-514-515-210600-
NORTH INTERIOR
  
CITY           SKY/WX    TMP DP  RH WIND       PRES   REMARKS
BELLINGHAM     CLEAR     48  40  73 S5        30.10R                  
FRIDAY HARBOR  CLEAR     45  42  89 CALM      30.12R                  
EASTSOUND      CLEAR     52  43  71 S7        30.10R                  
PORT ANGELES   CLEAR     49  39  68 W9        30.13R                  
EDIZ HOOK      FAIR      51  41  69 W10       30.13R                  
PORT TOWNSEND  FAIR      43  43 100 CALM      30.12R                  
NAS WHIDBEY    PTCLDY    51  42  71 E3        30.16R                  
ARLINGTON      CLEAR     47  44  90 CALM      30.13R                  
BURLINGTON     CLEAR     45  41  87 CALM      30.13R                  
$$
 
WAZ020-022-039-040-504-511-512-210600-
SOUTHWEST INTERIOR
  
CITY           SKY/WX    TMP DP  RH WIND       PRES   REMARKS
SHELTON        PTCLDY    52  44  74 SW12      30.10R                  
OLYMPIA        CLOUDY    52  46  80 CALM      30.13R                  
CHEHALIS       CLOUDY    52  46  82 SW6       30.15R                  
KELSO          MOCLDY    51  45  79 VRB6      30.17R                  
VANCOUVER      CLEAR     54  45  71 NW5       30.13R                  
SCAPPOOSE, OR  CLEAR     54  44  69 N9        30.13R                  
PORTLAND, OR   CLEAR     55  45  68 NW9       30.14R                  
$$
 
WAZ021-516-517-210600-
WASHINGTON COAST
  
CITY           SKY/WX    TMP DP  RH WIND       PRES   REMARKS
FORKS          CLEAR     43  41  93 CALM      30.15R                  
HOQUIAM        CLEAR     50  48  93 W5        30.16R                  
ASTORIA, OR    CLOUDY    51  43  74 W3        30.18R                  
$$
 
WAZ019-023-024-040-567>569-210600-
CASCADE MOUNTAINS AND COLUMBIA GORGE
  
CITY           SKY/WX    TMP DP  RH WIND       PRES   REMARKS
STAMPEDE PASS  NOT AVBL                                               
TROUTDALE, OR  CLEAR     55  45  68 VRB3      30.13R                  
HOOD RIVER, OR CLEAR     54  39  58 MISG      30.08R                  
THE DALLES, OR CLEAR     58  40  51 W12       30.03R                  
$$

WAZ026-027-041>044-520-521-210600-
EAST SLOPES
  
CITY           SKY/WX    TMP DP  RH WIND       PRES   REMARKS
OMAK           CLEAR     53  21  28 N12       30.00R                  
WENATCHEE      CLEAR     56  35  45 NW9       29.99R                  
ELLENSBURG     CLEAR     50  37  61 NW16G24   30.01R                  
YAKIMA         CLEAR     53  34  48 NW5       30.01R                  
SUNNYSIDE ARPT CLEAR     53  39  60 W6        29.98R                  
YAKIMA TC      FAIR      52  33  49 NW8       30.00R                  
$$

WAZ028-034-035-210600-
COLUMBIA BASIN
  
CITY           SKY/WX    TMP DP  RH WIND       PRES   REMARKS
EPHRATA        CLEAR     56  22  26 N12       29.96R                  
MOSES LAKE     CLEAR     52  29  41 N12       29.96R                  
PASCO          CLEAR     57  44  62 W7        29.96R                  
RICHLAND ARPT  CLEAR     51  44  74 W5        29.96                   
HERMISTON, OR  CLEAR     54  45  71 SW8       29.97R                  
$$

WAZ036>038-210600-
NORTHEAST WASHINGTON
  
CITY           SKY/WX    TMP DP  RH WIND       PRES   REMARKS
SPOKANE GEIGER PTCLDY    52  34  50 S5        29.93R                  
SPOKANE FELTS  CLEAR     48  40  73 VRB3      29.94R                  
FAIRCHILD AFB  CLEAR     46  38  74 N6        29.93R                  
COEURDALENE,ID CLEAR     43  42  97 E3        29.95R                  
DEER PARK      CLEAR     41  30  65 CALM      29.93R                  
$$

WAZ029>033-210600-
SOUTHEAST WASHINGTON
  
CITY           SKY/WX    TMP DP  RH WIND       PRES   REMARKS
PULLMAN        PTCLDY    49  44  83 W5        29.96R                  
LEWISTON, ID   MOCLDY    55  43  63 SW7       29.93R                  
WALLA WALLA    PTCLDY    55  45  68 S9        29.97R                  
PENDLETON, OR  PTCLDY    51  43  74 CALM      29.97R                  
$$